Location: Christianberg
(48.9086°N, 14.0209°E)
Time: 19:51:24
(UTC+00:00)

IRS-1D - Pass Details

Date: 20 June 2021
Orbit: 739 x 817 km, 98.6° (Epoch: 03 August)

Event Time Altitude Azimuth Distance (km) Brightness Sun altitude
Rises 01:58:12 0° 12° (NNE) 3,290 8.0 -8.0°
Reaches altitude 10° 02:00:34 10° 9° (N) 2,345 7.1 -7.8°
Maximum altitude 02:05:40 64° 290° (WNW) 851 3.7 -7.3°
Drops below altitude 10° 02:10:38 10° 209° (SSW) 2,280 5.3 -6.7°
Enters shadow 02:11:13 - 208° (SSW) 2,510 5.5 -6.7°
